This is the latest recevied weather packets stored in our database for station/object N4AN. If no packets are shown the sender has not sent any weather packets the latest 1 day(s).
| Time | Temp. | Humidity | Pressure | Rain* | Wind** | Luminosity | Snow |
|---|---|---|---|---|---|---|---|
| 1836274810 | 27.22° C | 84% | 1008.9 hPa | 0 mm | 1.79 m/s, 108° | - | - |
| 1836274509 | 26.67° C | 84% | 1008.8 hPa | 0 mm | 0.89 m/s, 306° | - | - |
| 1836274360 | 27.22° C | 85% | 1008.9 hPa | 0 mm | 0.89 m/s, 216° | - | - |
| 1836274209 | 26.67° C | 84% | 1008.9 hPa | 0 mm | 0.89 m/s, 213° | - | - |
| 1836273909 | 26.67° C | 84% | 1008.9 hPa | 0 mm | 1.34 m/s, 166° | - | - |
| 1778041480 | 27.22° C | 77% | 1010.5 hPa | 0 mm | 2.68 m/s, 93° | - | - |
| 1778041179 | 27.22° C | 77% | 1010.5 hPa | 0 mm | 1.79 m/s, 70° | - | - |
| 1778040878 | 26.67° C | 77% | 1010.5 hPa | 0 mm | 2.24 m/s, 47° | - | - |
| 1778040578 | 26.67° C | 77% | 1010.4 hPa | 0 mm | 3.13 m/s, 343° | - | - |
| 1778040508 | 26.67° C | 77% | 1010.5 hPa | 0 mm | 1.34 m/s, 1° | - | - |
| 1778040267 | 26.67° C | 77% | 1010.5 hPa | 0 mm | 1.34 m/s, 1° | - | - |
| 1778039959 | 26.67° C | 77% | 1010.5 hPa | 0 mm | 4.47 m/s, 3° | - | - |
| 1778039659 | 26.67° C | 77% | 1010.5 hPa | 0 mm | 3.13 m/s, 63° | - | - |
| 1778039358 | 26.67° C | 77% | 1010.6 hPa | 0 mm | 4.47 m/s, 30° | - | - |
| 1778039058 | 27.22° C | 77% | 1010.5 hPa | 0 mm | 3.13 m/s, 300° | - | - |
| 1778038758 | 27.22° C | 77% | 1010.6 hPa | 0 mm | 2.24 m/s, 6° | - | - |
| 1778038457 | 27.22° C | 77% | 1010.5 hPa | 0 mm | 1.34 m/s, 82° | - | - |
| 1778038150 | 26.67° C | 78% | 1010.5 hPa | 0 mm | 2.24 m/s, 42° | - | - |
| 1778037782 | 26.67° C | 79% | 1010.5 hPa | 0 mm | 2.24 m/s, 279° | - | - |
| 1778037315 | 26.67° C | 78% | 1010.4 hPa | 0 mm | 2.68 m/s, 8° | - | - |
| 1778037014 | 26.67° C | 79% | 1010.5 hPa | 0 mm | 3.58 m/s, 84° | - | - |
| 1778036714 | 26.67° C | 79% | 1010.3 hPa | 0 mm | 1.34 m/s, 13° | - | - |
| 1778036414 | 26.11° C | 80% | 1010.3 hPa | 0 mm | 2.24 m/s, 11° | - | - |
| 1778036114 | 26.11° C | 79% | 1010.1 hPa | 0 mm | 2.24 m/s, 72° | - | - |
| 1778035813 | 26.11° C | 79% | 1010.1 hPa | 0 mm | 6.26 m/s, 86° | - | - |
* Rain latest hour (hover to see other rain measurements)
** Current wind speed in m/s (hover to see current wind gust speed)